SCP
0 0 0 0 0 0 -0 0 -0 0 0 0 0 0 0 0 0 0 0 0 0 0 0 0 -0 -0 -0 -0 -0 0 0 0 0 0 0 0 0 -0 -0 -0 -0 -0 0
0 0 0 0 0 0 0 0 -0 0 0 0 0 0 0 0 0 0 0 0 0 0 0 0 -0 0 -0 -0 0 0 0 0 0 -0 0 0 0 0 0 0 0 0 0
0 0 0 0 0 0 0 0 0 0 0 0 0 0 0 0 0 0 0 0 0 0 0 0 0 0 0 0 0 0 0 0 0 0 0 0 0 0 0 0 0 0 0
0 0 0 0 0 0 0 0 0 0 0 0 0 0 0 0 0 -0 0 0 0 0 0 0 0 0 0 0 0 0 0 0 0 0 0 0 0 0 0 0 0 0 0
0 0 0 0 0 0 0 0 0 0 0 0 0 0 0 0 0 0 0 0 0 0 0 0 0 0 0 0 0 0 0 0 0 0 0 0 0 0 0 0 0 0 0
0 0 0 0 -0 0 0 -0 0 0 0 0 0 0 0 0 0 0 0 0 0 0 0 0 0 0 0 0 0 0 0 0 0 0 0 0 0 0 0 0 0 0 0
0 0 0 0 0 0 0 0 0 0 0 0 0 0 0 0 0 0 0 0 0 0 0 0 0 0 0 0 0 0 0 0 0 0 0 0 0 0 0 0 0 0 0
0 0 0 0 0 0 0 0 0 0 0 0 0 0 0 0 0 0 0 0 0 0 0 0 0 0 0 0 0 0 0 0 0 0 0 0 0 0 0 0 0 0 0
0 0 0 0 0 0 0 0 0 0 0 0 0 0 0 0 0 0 0 0 0 0 0 0 0 0 0 0 0 0 0 0 0 0 0 0 0 0 0 0 0 0 0
0 0 0 0 0 0 0 0 0 0 0 0 -0 0 0 0 0 0 0 0 0 0 0 0 0 0 0 0 0 0 0 0 0 0 0 0 0 0 0 0 0 0 0
0 0 0 0 0 0 0 0 0 0 0 0 0 0 0 0 -0 -0 0 0 0 0 0 0 0 0 0 0 0 0 0 0 0 0 0 0 0 0 0 0 0 0 0
0 1 0 0 0 0 0 0 0 0 0 0 0 0 0 0 0 0 0 0 0 0 0 0 0 0 0 0 0 0 0 0 0 0 0 0 0 0 0 0 0 0 0
0 1 1 1 1 1 0 0 0 0 0 0 0 0 0 0 0 0 0 0 0 0 0 0 0 0 0 0 0 0 0 0 0 0 0 0 0 -0 -0 0 0 0 0
1 1 1 0 0 0 0 0 0 0 0 0 0 0 0 0 0 0 0 0 0 0 0 0 0 0 0 0 0 0 0 0 0 0 0 0 0 0 0 0 0 0 0
0 0 0 0 0 0 0 0 0 0 0 0 0 0 0 0 0 0 0 0 0 0 0 0 0 0 0 0 0 0 0 0 0 0 0 0 0 0 0 0 0 0 0
0 0 0 0 0 0 0 0 0 0 0 0 0 0 0 0 0 0 0 0 0 0 0 0 0 0 0 0 0 0 0 0 0 0 0 0 0 0 0 0 0 0 0
0 0 0 0 0 0 0 0 0 0 0 0 0 0 0 0 0 0 0 0 0 0 0 0 0 0 0 0 0 0 0 0 0 0 0 0 0 0 0 0 0 0 0
0 0 0 0 0 0 0 0 0 0 0 0 0 0 0 0 0 0 0 0 0 0 0 0 0 0 0 0 0 0 0 0 0 0 0 0 0 0 0 0 0 0 0
-0 0 0 0 0 0 0 0 0 0 0 0 0 0 0 0 0 0 0 0 0 0 0 0 0 0 0 0 0 0 0 0 0 0 0 0 0 0 0 0 0 0 0
0 -0 0 0 0 0 0 0 0 0 0 0 0 0 0 0 0 0 0 0 0 0 0 0 0 0 0 0 0 0 0 0 0 0 0 0 0 0 0 0 0 0 0
0 0 0 0 0 0 0 0 0 0 0 0 0 0 0 0 0 0 0 0 0 0 0 0 0 0 0 0 0 0 0 0 0 0 0 0 0 0 0 0 0 0 0
0 0 0 0 0 0 0 0 0 0 0 0 0 0 0 0 0 0 0 0 0 0 0 0 0 0 0 0 0 0 0 0 0 0 0 0 0 0 0 0 0 0 0
0 0 0 0 0 0 0 0 0 0 0 0 0 0 0 0 0 0 0 0 0 0 0 0 0 0 0 0 0 0 0 0 0 0 0 0 0 0 0 0 0 0 0
0 0 0 0 0 0 0 0 0 0 0 0 0 0 0 0 0 0 0 0 0 0 0 0 0 0 0 0 0 0 0 0 0 0 0 0 0 0 0 0 0 0 0
0 0 0 0 0 0 0 0 0 0 0 0 0 0 0 0 0 0 0 0 0 0 0 0 0 0 0 0 0 0 0 0 0 0 0 0 0 0 0 0 0 0 0
0 0 0 0 0 0 0 0 0 0 0 0 0 0 0 0 0 0 0 0 0 0 0 0 0 0 0 0 0 0 0 0 0 0 0 0 0 0 0 0 0 0 0
Wind_Speed_500mb
11 13 5 1 14 27 20 10 7 6 12 14 12 8 15 16 12 7 5 7 8 9 12 12 12 11 9 14 20 22 24 21 25 39 31 23 16 14 7 9 9 8 9
11 14 13 10 21 16 12 5 10 15 17 17 11 11 16 20 23 21 18 14 12 14 15 13 15 14 12 12 14 19 21 19 23 40 37 31 21 15 13 9 10 10 9
15 12 22 32 16 11 7 10 16 17 13 11 9 11 14 16 19 23 23 23 19 15 14 13 15 12 13 11 11 14 15 18 19 29 40 33 27 22 14 17 16 14 12
24 24 29 25 17 13 11 13 13 14 16 18 15 12 10 11 14 19 19 19 21 19 16 14 16 16 16 9 8 10 11 14 20 25 31 30 26 22 18 15 16 16 12
34 30 26 22 15 11 13 18 19 17 17 15 12 11 6 2 5 10 10 13 15 16 17 15 15 15 15 16 15 14 11 12 21 23 24 27 26 24 21 19 18 14 10
34 31 26 22 16 9 9 14 13 16 17 11 11 6 4 9 5 2 5 7 8 12 15 17 16 15 15 13 16 16 17 9 16 22 25 23 23 25 24 24 20 9 7
31 29 27 22 16 12 12 16 15 13 13 10 10 3 3 6 7 5 4 3 2 6 7 12 11 12 11 11 13 14 17 20 18 15 17 21 21 17 18 15 11 13 10
30 30 28 27 23 19 19 18 18 19 16 15 8 8 5 8 11 7 5 5 3 2 3 3 3 7 7 6 8 10 14 16 18 16 14 16 14 15 16 17 18 15 11
30 32 28 27 27 28 26 19 19 23 17 21 15 11 13 10 15 15 12 7 4 2 5 4 5 5 8 11 7 8 12 15 16 13 13 13 13 11 9 10 16 14 12
31 27 22 23 24 28 31 25 23 20 17 21 22 19 19 18 18 23 20 15 7 3 5 7 8 8 8 11 10 11 15 24 24 23 22 17 15 12 8 9 12 14 12
24 20 21 23 21 20 29 32 29 28 25 23 26 25 24 22 21 25 28 25 18 12 8 8 12 13 12 12 13 13 22 27 26 20 18 16 14 11 8 11 7 11 7
25 27 27 26 25 28 29 32 33 34 34 32 32 30 27 28 27 26 33 34 28 22 15 11 11 15 16 14 15 16 25 24 22 17 14 13 11 4 7 8 11 14 12
33 30 34 30 34 36 34 27 29 35 39 44 42 41 36 36 31 30 32 39 35 29 22 19 17 14 17 19 22 21 22 27 20 18 24 16 8 15 12 4 9 9 13
35 38 37 39 35 37 39 33 32 34 39 43 45 47 45 42 42 40 37 43 42 38 33 26 22 18 18 19 25 28 22 13 13 19 21 13 12 9 9 2 9 11 8
36 36 34 30 28 29 31 32 34 38 43 42 47 49 46 47 46 44 44 42 45 40 36 34 31 31 27 26 31 28 24 21 20 20 17 15 16 11 14 9 11 10 6
20 20 18 17 21 22 24 30 34 36 40 46 46 54 54 50 49 52 59 40 45 44 43 41 37 36 31 32 33 29 24 23 23 22 20 17 19 16 11 13 11 11 11
4 11 16 16 17 19 19 23 28 33 41 46 53 56 57 56 54 50 54 42 45 48 48 44 40 39 39 39 36 32 30 28 21 19 21 20 20 19 17 16 16 14 14
17 16 11 15 18 19 21 23 27 30 29 28 29 34 37 39 41 38 42 45 49 54 50 46 44 43 47 49 43 42 40 39 37 24 28 26 20 18 19 23 17 16 16
23 24 22 19 18 20 20 23 26 29 35 29 30 31 31 32 34 37 42 51 52 50 46 42 41 46 54 49 39 45 45 51 50 38 27 25 31 30 25 24 20 21 19
24 27 30 26 20 19 22 25 25 26 27 25 28 26 28 29 34 44 47 49 54 51 45 44 43 51 57 45 40 50 43 41 52 44 35 30 32 36 37 34 30 29 27
25 28 27 25 22 18 21 25 24 25 24 24 26 26 25 28 30 34 40 46 52 49 46 47 47 50 58 51 44 56 52 49 52 51 46 36 38 42 42 40 32 36 38
29 30 26 20 11 20 23 22 24 25 27 26 25 22 24 25 24 25 35 40 43 42 44 45 48 52 56 56 49 63 61 55 52 50 45 46 46 45 49 47 50 47 44
33 31 24 21 21 23 25 25 31 36 38 37 35 35 31 29 29 29 26 24 25 26 38 47 50 51 49 50 49 67 69 55 54 49 48 50 50 52 51 54 51 49 45
32 30 22 20 17 20 22 28 37 36 35 36 36 39 40 41 39 44 42 33 30 27 25 30 45 49 43 49 57 66 74 55 45 49 56 50 43 35 39 42 48 46 44
30 28 27 20 21 20 24 31 34 27 23 28 32 30 35 44 46 47 51 44 46 41 40 45 52 55 47 47 55 58 66 65 57 56 58 47 47 47 48 49 45 48 50
29 29 27 25 23 22 29 31 27 24 23 24 21 19 20 25 34 38 38 32 42 51 44 53 66 66 60 55 47 44 54 62 54 55 53 62 66 62 54 49 52 58 57
Wind_Direction_500mb
133 151 143 205 121 108 114 91 61 121 114 113 111 78 59 65 87 97 101 82 71 56 58 61 78 92 131 153 169 176 196 211 197 178 184 175 185 157 148 148 136 156 166
163 178 184 197 162 171 140 114 142 139 129 133 133 109 86 77 76 71 67 79 101 91 83 82 95 94 114 129 160 172 189 207 227 185 182 180 180 181 170 180 171 161 141
167 161 154 158 155 135 133 142 149 139 144 152 138 119 99 81 76 71 70 75 95 101 90 93 92 97 112 129 154 177 190 204 200 194 181 180 185 177 171 159 149 141 134
157 147 147 153 155 157 157 153 149 144 139 134 130 109 86 72 66 73 74 81 87 92 94 95 96 90 84 98 150 169 172 174 172 175 179 181 180 172 166 159 155 144 141
156 152 156 155 145 154 167 154 144 135 134 146 120 103 82 132 74 72 85 94 90 91 88 87 87 87 85 85 102 110 113 140 157 170 180 179 179 173 167 162 154 146 138
157 154 153 153 150 162 168 188 159 137 150 154 115 75 30 176 155 73 86 99 81 77 78 71 72 84 85 86 95 113 122 134 163 167 175 171 170 171 168 164 163 166 147
161 160 157 169 168 181 202 193 186 172 180 189 169 120 355 202 184 158 170 127 106 91 89 62 76 70 81 88 85 104 108 118 129 136 149 149 159 172 172 169 186 188 189
171 169 169 185 193 199 204 217 220 220 234 235 208 217 260 223 220 209 204 144 162 225 283 334 97 85 98 94 91 97 107 121 121 122 130 142 147 160 168 178 190 187 194
173 171 179 198 212 217 219 230 234 239 247 235 238 227 232 235 234 231 231 192 169 261 229 218 183 143 124 130 134 129 124 128 128 131 137 148 149 155 173 196 187 180 186
184 173 183 207 220 231 233 239 234 223 237 245 241 230 237 247 237 235 235 234 237 268 233 234 220 184 158 143 143 140 141 129 126 126 122 126 133 139 169 228 240 237 249
198 196 211 228 236 242 239 242 245 240 239 239 243 241 242 244 242 236 240 243 237 238 259 249 222 214 193 176 149 148 159 148 145 142 135 133 127 112 64 23 254 241 224
220 223 223 236 251 249 244 237 246 245 242 245 244 244 248 246 240 243 237 240 244 246 254 257 219 214 218 214 198 175 178 181 180 189 197 209 196 134 128 121 110 117 144
221 225 233 237 247 251 254 252 246 244 244 244 244 247 247 248 246 248 241 242 242 243 246 260 244 235 222 221 221 213 210 209 218 220 210 192 160 138 132 122 181 167 154
218 219 225 226 235 245 249 247 246 257 256 259 249 249 251 249 251 250 250 237 236 234 236 240 236 230 224 219 203 189 189 183 193 181 176 168 152 166 183 109 202 188 194
218 221 223 228 238 247 251 257 264 266 263 263 262 258 256 251 260 255 252 243 234 234 235 230 229 218 212 205 189 189 202 203 194 194 197 196 199 203 210 216 188 197 169
204 201 215 224 241 251 254 256 257 258 257 257 256 248 255 251 258 263 255 241 230 225 226 228 230 225 215 199 195 196 200 198 209 210 211 218 209 201 223 206 191 191 188
223 201 209 228 246 256 265 278 283 283 272 259 254 254 255 260 260 263 261 234 220 222 227 228 230 225 210 201 201 206 210 210 218 218 223 224 219 209 205 209 223 219 227
6 346 295 257 259 269 276 285 295 308 297 276 265 258 257 253 251 249 236 221 214 222 224 227 227 220 212 210 215 218 231 222 222 225 228 217 212 212 226 211 226 237 259
348 357 339 313 289 286 280 287 294 297 300 278 272 264 262 260 246 230 227 222 227 229 229 229 230 222 216 217 235 228 218 219 221 222 220 223 221 221 222 221 229 250 258
324 340 346 340 319 287 284 290 293 300 308 295 280 275 260 253 250 237 230 228 232 236 241 240 240 228 221 223 234 220 217 219 222 223 224 231 228 225 232 236 244 240 254
308 321 333 335 294 297 296 296 292 290 291 292 285 284 277 272 263 249 241 250 248 250 249 246 238 230 228 222 230 222 226 236 228 232 230 240 235 229 237 236 253 250 251
301 312 319 317 306 286 294 295 282 284 286 286 288 286 268 257 250 254 261 257 254 250 250 246 238 233 221 223 232 223 229 240 231 231 244 228 233 237 239 242 260 256 257
299 307 315 299 281 291 302 302 298 295 293 292 288 280 254 244 253 255 265 249 235 245 245 238 234 229 221 237 246 230 232 242 239 241 233 229 247 243 248 249 246 241 259
295 295 290 309 291 302 297 309 315 309 289 286 275 275 273 264 265 259 260 242 232 243 254 243 229 227 245 242 239 234 230 238 235 232 231 244 235 233 242 245 249 260 271
277 276 278 282 289 291 287 298 311 318 291 288 286 285 262 266 256 252 248 253 241 246 259 256 241 234 239 240 228 227 238 238 233 241 236 226 233 234 251 263 259 264 270
273 274 268 273 277 287 295 305 305 309 300 287 276 256 250 264 255 249 250 241 242 251 256 240 244 248 240 231 235 237 243 234 233 229 230 243 245 257 253 252 262 269 281
Wind_Speed_850mb
11 13 5 1 14 27 20 10 7 6 12 14 12 8 15 16 12 7 5 7 8 9 12 12 12 11 9 14 20 22 24 21 25 39 31 23 16 14 7 9 9 8 9
11 14 13 10 21 16 12 5 10 15 17 17 11 11 16 20 23 21 18 14 12 14 15 13 15 14 12 12 14 19 21 19 23 40 37 31 21 15 13 9 10 10 9
15 12 22 32 16 11 7 10 16 17 13 11 9 11 14 16 19 23 23 23 19 15 14 13 15 12 13 11 11 14 15 18 19 29 40 33 27 22 14 17 16 14 12
24 24 29 25 17 13 11 13 13 14 16 18 15 12 10 11 14 19 19 19 21 19 16 14 16 16 16 9 8 10 11 14 20 25 31 30 26 22 18 15 16 16 12
34 30 26 22 15 11 13 18 19 17 17 15 12 11 6 2 5 10 10 13 15 16 17 15 15 15 15 16 15 14 11 12 21 23 24 27 26 24 21 19 18 14 10
34 31 26 22 16 9 9 14 13 16 17 11 11 6 4 9 5 2 5 7 8 12 15 17 16 15 15 13 16 16 17 9 16 22 25 23 23 25 24 24 20 9 7
31 29 27 22 16 12 12 16 15 13 13 10 10 3 3 6 7 5 4 3 2 6 7 12 11 12 11 11 13 14 17 20 18 15 17 21 21 17 18 15 11 13 10
30 30 28 27 23 19 19 18 18 19 16 15 8 8 5 8 11 7 5 5 3 2 3 3 3 7 7 6 8 10 14 16 18 16 14 16 14 15 16 17 18 15 11
30 32 28 27 27 28 26 19 19 23 17 21 15 11 13 10 15 15 12 7 4 2 5 4 5 5 8 11 7 8 12 15 16 13 13 13 13 11 9 10 16 14 12
31 27 22 23 24 28 31 25 23 20 17 21 22 19 19 18 18 23 20 15 7 3 5 7 8 8 8 11 10 11 15 24 24 23 22 17 15 12 8 9 12 14 12
24 20 21 23 21 20 29 32 29 28 25 23 26 25 24 22 21 25 28 25 18 12 8 8 12 13 12 12 13 13 22 27 26 20 18 16 14 11 8 11 7 11 7
25 27 27 26 25 28 29 32 33 34 34 32 32 30 27 28 27 26 33 34 28 22 15 11 11 15 16 14 15 16 25 24 22 17 14 13 11 4 7 8 11 14 12
33 30 34 30 34 36 34 27 29 35 39 44 42 41 36 36 31 30 32 39 35 29 22 19 17 14 17 19 22 21 22 27 20 18 24 16 8 15 12 4 9 9 13
35 38 37 39 35 37 39 33 32 34 39 43 45 47 45 42 42 40 37 43 42 38 33 26 22 18 18 19 25 28 22 13 13 19 21 13 12 9 9 2 9 11 8
36 36 34 30 28 29 31 32 34 38 43 42 47 49 46 47 46 44 44 42 45 40 36 34 31 31 27 26 31 28 24 21 20 20 17 15 16 11 14 9 11 10 6
20 20 18 17 21 22 24 30 34 36 40 46 46 54 54 50 49 52 59 40 45 44 43 41 37 36 31 32 33 29 24 23 23 22 20 17 19 16 11 13 11 11 11
4 11 16 16 17 19 19 23 28 33 41 46 53 56 57 56 54 50 54 42 45 48 48 44 40 39 39 39 36 32 30 28 21 19 21 20 20 19 17 16 16 14 14
17 16 11 15 18 19 21 23 27 30 29 28 29 34 37 39 41 38 42 45 49 54 50 46 44 43 47 49 43 42 40 39 37 24 28 26 20 18 19 23 17 16 16
23 24 22 19 18 20 20 23 26 29 35 29 30 31 31 32 34 37 42 51 52 50 46 42 41 46 54 49 39 45 45 51 50 38 27 25 31 30 25 24 20 21 19
24 27 30 26 20 19 22 25 25 26 27 25 28 26 28 29 34 44 47 49 54 51 45 44 43 51 57 45 40 50 43 41 52 44 35 30 32 36 37 34 30 29 27
25 28 27 25 22 18 21 25 24 25 24 24 26 26 25 28 30 34 40 46 52 49 46 47 47 50 58 51 44 56 52 49 52 51 46 36 38 42 42 40 32 36 38
29 30 26 20 11 20 23 22 24 25 27 26 25 22 24 25 24 25 35 40 43 42 44 45 48 52 56 56 49 63 61 55 52 50 45 46 46 45 49 47 50 47 44
33 31 24 21 21 23 25 25 31 36 38 37 35 35 31 29 29 29 26 24 25 26 38 47 50 51 49 50 49 67 69 55 54 49 48 50 50 52 51 54 51 49 45
32 30 22 20 17 20 22 28 37 36 35 36 36 39 40 41 39 44 42 33 30 27 25 30 45 49 43 49 57 66 74 55 45 49 56 50 43 35 39 42 48 46 44
30 28 27 20 21 20 24 31 34 27 23 28 32 30 35 44 46 47 51 44 46 41 40 45 52 55 47 47 55 58 66 65 57 56 58 47 47 47 48 49 45 48 50
29 29 27 25 23 22 29 31 27 24 23 24 21 19 20 25 34 38 38 32 42 51 44 53 66 66 60 55 47 44 54 62 54 55 53 62 66 62 54 49 52 58 57
Wind_Direction_850mb
133 151 143 205 121 108 114 91 61 121 114 113 111 78 59 65 87 97 101 82 71 56 58 61 78 92 131 153 169 176 196 211 197 178 184 175 185 157 148 148 136 156 166
163 178 184 197 162 171 140 114 142 139 129 133 133 109 86 77 76 71 67 79 101 91 83 82 95 94 114 129 160 172 189 207 227 185 182 180 180 181 170 180 171 161 141
167 161 154 158 155 135 133 142 149 139 144 152 138 119 99 81 76 71 70 75 95 101 90 93 92 97 112 129 154 177 190 204 200 194 181 180 185 177 171 159 149 141 134
157 147 147 153 155 157 157 153 149 144 139 134 130 109 86 72 66 73 74 81 87 92 94 95 96 90 84 98 150 169 172 174 172 175 179 181 180 172 166 159 155 144 141
156 152 156 155 145 154 167 154 144 135 134 146 120 103 82 132 74 72 85 94 90 91 88 87 87 87 85 85 102 110 113 140 157 170 180 179 179 173 167 162 154 146 138
157 154 153 153 150 162 168 188 159 137 150 154 115 75 30 176 155 73 86 99 81 77 78 71 72 84 85 86 95 113 122 134 163 167 175 171 170 171 168 164 163 166 147
161 160 157 169 168 181 202 193 186 172 180 189 169 120 355 202 184 158 170 127 106 91 89 62 76 70 81 88 85 104 108 118 129 136 149 149 159 172 172 169 186 188 189
171 169 169 185 193 199 204 217 220 220 234 235 208 217 260 223 220 209 204 144 162 225 283 334 97 85 98 94 91 97 107 121 121 122 130 142 147 160 168 178 190 187 194
173 171 179 198 212 217 219 230 234 239 247 235 238 227 232 235 234 231 231 192 169 261 229 218 183 143 124 130 134 129 124 128 128 131 137 148 149 155 173 196 187 180 186
184 173 183 207 220 231 233 239 234 223 237 245 241 230 237 247 237 235 235 234 237 268 233 234 220 184 158 143 143 140 141 129 126 126 122 126 133 139 169 228 240 237 249
198 196 211 228 236 242 239 242 245 240 239 239 243 241 242 244 242 236 240 243 237 238 259 249 222 214 193 176 149 148 159 148 145 142 135 133 127 112 64 23 254 241 224
220 223 223 236 251 249 244 237 246 245 242 245 244 244 248 246 240 243 237 240 244 246 254 257 219 214 218 214 198 175 178 181 180 189 197 209 196 134 128 121 110 117 144
221 225 233 237 247 251 254 252 246 244 244 244 244 247 247 248 246 248 241 242 242 243 246 260 244 235 222 221 221 213 210 209 218 220 210 192 160 138 132 122 181 167 154
218 219 225 226 235 245 249 247 246 257 256 259 249 249 251 249 251 250 250 237 236 234 236 240 236 230 224 219 203 189 189 183 193 181 176 168 152 166 183 109 202 188 194
218 221 223 228 238 247 251 257 264 266 263 263 262 258 256 251 260 255 252 243 234 234 235 230 229 218 212 205 189 189 202 203 194 194 197 196 199 203 210 216 188 197 169
204 201 215 224 241 251 254 256 257 258 257 257 256 248 255 251 258 263 255 241 230 225 226 228 230 225 215 199 195 196 200 198 209 210 211 218 209 201 223 206 191 191 188
223 201 209 228 246 256 265 278 283 283 272 259 254 254 255 260 260 263 261 234 220 222 227 228 230 225 210 201 201 206 210 210 218 218 223 224 219 209 205 209 223 219 227
6 346 295 257 259 269 276 285 295 308 297 276 265 258 257 253 251 249 236 221 214 222 224 227 227 220 212 210 215 218 231 222 222 225 228 217 212 212 226 211 226 237 259
348 357 339 313 289 286 280 287 294 297 300 278 272 264 262 260 246 230 227 222 227 229 229 229 230 222 216 217 235 228 218 219 221 222 220 223 221 221 222 221 229 250 258
324 340 346 340 319 287 284 290 293 300 308 295 280 275 260 253 250 237 230 228 232 236 241 240 240 228 221 223 234 220 217 219 222 223 224 231 228 225 232 236 244 240 254
308 321 333 335 294 297 296 296 292 290 291 292 285 284 277 272 263 249 241 250 248 250 249 246 238 230 228 222 230 222 226 236 228 232 230 240 235 229 237 236 253 250 251
301 312 319 317 306 286 294 295 282 284 286 286 288 286 268 257 250 254 261 257 254 250 250 246 238 233 221 223 232 223 229 240 231 231 244 228 233 237 239 242 260 256 257
299 307 315 299 281 291 302 302 298 295 293 292 288 280 254 244 253 255 265 249 235 245 245 238 234 229 221 237 246 230 232 242 239 241 233 229 247 243 248 249 246 241 259
295 295 290 309 291 302 297 309 315 309 289 286 275 275 273 264 265 259 260 242 232 243 254 243 229 227 245 242 239 234 230 238 235 232 231 244 235 233 242 245 249 260 271
277 276 278 282 289 291 287 298 311 318 291 288 286 285 262 266 256 252 248 253 241 246 259 256 241 234 239 240 228 227 238 238 233 241 236 226 233 234 251 263 259 264 270
273 274 268 273 277 287 295 305 305 309 300 287 276 256 250 264 255 249 250 241 242 251 256 240 244 248 240 231 235 237 243 234 233 229 230 243 245 257 253 252 262 269 281